QPF
0.09 0.08 0.08 0.11 0.09 0.08 0.08 0.09 0.08 0.07 0.06 0.05 0.03 0.02 0.02 0.01 0.01 0.02 0.02 0.02 0.03 0.06 0.10 0.11 0.10 0.08 0.08 0.08 0.08 0.06 0.05 0.05 0.05 0.04 0.03 0.02 0.03 0.03 0.02 0.03 0.03 0.03 0.03
0.07 0.07 0.08 0.10 0.11 0.10 0.10 0.10 0.10 0.09 0.08 0.08 0.05 0.04 0.04 0.04 0.03 0.02 0.02 0.03 0.03 0.04 0.08 0.12 0.14 0.12 0.12 0.11 0.11 0.09 0.07 0.05 0.05 0.06 0.05 0.04 0.03 0.03 0.03 0.03 0.03 0.03 0.02
0.08 0.08 0.08 0.09 0.10 0.11 0.10 0.10 0.10 0.09 0.07 0.07 0.07 0.07 0.06 0.06 0.05 0.04 0.03 0.04 0.04 0.04 0.06 0.09 0.12 0.13 0.14 0.14 0.11 0.11 0.09 0.08 0.07 0.08 0.06 0.05 0.04 0.04 0.04 0.04 0.03 0.03 0.03
0.06 0.06 0.07 0.09 0.10 0.10 0.10 0.08 0.08 0.07 0.08 0.07 0.08 0.07 0.07 0.07 0.05 0.05 0.04 0.04 0.05 0.05 0.05 0.07 0.09 0.11 0.14 0.14 0.12 0.14 0.15 0.12 0.11 0.10 0.08 0.06 0.05 0.05 0.04 0.03 0.03 0.03 0.03
0.09 0.08 0.08 0.10 0.09 0.09 0.10 0.08 0.08 0.08 0.09 0.09 0.08 0.07 0.07 0.06 0.05 0.04 0.04 0.05 0.06 0.05 0.06 0.08 0.09 0.10 0.12 0.14 0.12 0.13 0.14 0.13 0.13 0.10 0.08 0.07 0.06 0.05 0.05 0.04 0.04 0.04 0.04
0.09 0.10 0.12 0.12 0.10 0.09 0.09 0.08 0.07 0.07 0.08 0.08 0.07 0.07 0.06 0.05 0.04 0.04 0.05 0.05 0.06 0.06 0.07 0.08 0.10 0.11 0.13 0.15 0.14 0.15 0.16 0.15 0.15 0.12 0.11 0.09 0.08 0.06 0.04 0.03 0.03 0.04 0.04
0.08 0.10 0.10 0.11 0.12 0.12 0.11 0.10 0.09 0.08 0.07 0.07 0.07 0.07 0.06 0.04 0.04 0.03 0.04 0.05 0.05 0.07 0.08 0.09 0.11 0.13 0.11 0.10 0.12 0.15 0.18 0.20 0.18 0.15 0.12 0.11 0.08 0.06 0.05 0.05 0.05 0.05 0.05
0.07 0.09 0.09 0.10 0.10 0.10 0.11 0.10 0.10 0.10 0.08 0.07 0.08 0.08 0.06 0.04 0.04 0.03 0.03 0.03 0.04 0.05 0.06 0.08 0.10 0.12 0.12 0.12 0.12 0.13 0.17 0.21 0.21 0.18 0.17 0.15 0.12 0.10 0.08 0.06 0.05 0.05 0.05
0.06 0.06 0.06 0.06 0.08 0.08 0.08 0.07 0.07 0.09 0.11 0.10 0.12 0.13 0.09 0.06 0.05 0.04 0.03 0.03 0.04 0.05 0.05 0.06 0.08 0.09 0.11 0.13 0.13 0.15 0.15 0.18 0.21 0.21 0.18 0.14 0.12 0.11 0.10 0.08 0.07 0.07 0.07
0.05 0.05 0.05 0.05 0.05 0.05 0.05 0.05 0.05 0.06 0.08 0.09 0.10 0.11 0.10 0.09 0.09 0.07 0.04 0.04 0.03 0.04 0.05 0.05 0.06 0.08 0.12 0.15 0.16 0.17 0.16 0.16 0.19 0.19 0.19 0.16 0.13 0.11 0.09 0.09 0.08 0.09 0.09
0.03 0.03 0.03 0.03 0.03 0.03 0.03 0.03 0.04 0.05 0.06 0.06 0.07 0.07 0.07 0.07 0.08 0.09 0.07 0.05 0.04 0.05 0.07 0.07 0.08 0.10 0.13 0.16 0.17 0.18 0.17 0.16 0.18 0.18 0.16 0.16 0.15 0.15 0.14 0.13 0.11 0.10 0.08
0.02 0.02 0.02 0.03 0.03 0.03 0.03 0.03 0.04 0.05 0.05 0.06 0.07 0.07 0.06 0.06 0.06 0.09 0.11 0.09 0.07 0.05 0.06 0.07 0.09 0.11 0.14 0.19 0.25 0.28 0.22 0.20 0.19 0.19 0.17 0.15 0.13 0.12 0.13 0.13 0.12 0.10 0.08
0.01 0.02 0.02 0.03 0.03 0.03 0.03 0.03 0.03 0.03 0.04 0.05 0.05 0.06 0.06 0.06 0.06 0.07 0.09 0.08 0.07 0.05 0.05 0.06 0.08 0.10 0.12 0.17 0.23 0.30 0.30 0.29 0.26 0.23 0.20 0.17 0.13 0.11 0.11 0.10 0.10 0.10 0.09
0.01 0.01 0.02 0.03 0.03 0.03 0.03 0.03 0.04 0.03 0.03 0.03 0.03 0.04 0.06 0.06 0.07 0.07 0.08 0.08 0.07 0.06 0.05 0.05 0.07 0.09 0.13 0.15 0.19 0.24 0.28 0.34 0.33 0.29 0.25 0.21 0.17 0.15 0.12 0.11 0.11 0.10 0.09
0.00 0.01 0.01 0.02 0.02 0.02 0.02 0.02 0.02 0.03 0.03 0.03 0.02 0.03 0.04 0.05 0.07 0.08 0.08 0.08 0.08 0.07 0.05 0.05 0.08 0.10 0.13 0.15 0.19 0.19 0.21 0.28 0.30 0.29 0.26 0.22 0.18 0.15 0.13 0.12 0.11 0.09 0.08
0.00 0.01 0.01 0.02 0.02 0.01 0.01 0.01 0.01 0.02 0.03 0.03 0.02 0.02 0.02 0.04 0.05 0.07 0.08 0.08 0.08 0.08 0.07 0.06 0.08 0.11 0.13 0.15 0.18 0.16 0.17 0.21 0.21 0.20 0.17 0.15 0.14 0.12 0.11 0.09 0.09 0.08 0.07
0.01 0.00 0.01 0.01 0.01 0.02 0.02 0.01 0.01 0.01 0.02 0.02 0.03 0.03 0.02 0.03 0.05 0.05 0.05 0.05 0.06 0.07 0.09 0.10 0.11 0.12 0.11 0.13 0.15 0.14 0.14 0.14 0.15 0.16 0.15 0.12 0.11 0.09 0.07 0.06 0.06 0.06 0.05
0.01 0.01 0.01 0.01 0.01 0.01 0.01 0.02 0.01 0.02 0.02 0.03 0.04 0.05 0.04 0.03 0.04 0.05 0.05 0.06 0.07 0.07 0.09 0.11 0.12 0.11 0.10 0.09 0.10 0.10 0.10 0.11 0.12 0.13 0.12 0.11 0.09 0.07 0.06 0.05 0.05 0.05 0.04
0.01 0.01 0.01 0.01 0.01 0.01 0.01 0.01 0.02 0.02 0.02 0.03 0.05 0.07 0.07 0.05 0.04 0.04 0.05 0.08 0.09 0.09 0.10 0.10 0.12 0.11 0.11 0.09 0.08 0.08 0.08 0.08 0.09 0.09 0.08 0.07 0.07 0.07 0.06 0.05 0.05 0.05 0.05
0.01 0.01 0.01 0.01 0.01 0.01 0.01 0.01 0.01 0.01 0.01 0.02 0.03 0.04 0.05 0.07 0.06 0.05 0.04 0.04 0.05 0.06 0.07 0.08 0.09 0.09 0.09 0.08 0.06 0.06 0.07 0.07 0.07 0.06 0.06 0.05 0.04 0.04 0.04 0.05 0.05 0.05 0.04
0.01 0.01 0.01 0.01 0.01 0.00 0.01 0.01 0.01 0.01 0.01 0.01 0.01 0.01 0.02 0.02 0.03 0.03 0.03 0.04 0.03 0.03 0.04 0.06 0.07 0.06 0.06 0.06 0.05 0.05 0.05 0.06 0.05 0.04 0.04 0.04 0.03 0.03 0.04 0.04 0.04 0.04 0.03
0.02 0.02 0.02 0.01 0.00 0.00 0.00 0.00 0.01 0.01 0.01 0.01 0.01 0.01 0.01 0.01 0.01 0.01 0.02 0.03 0.04 0.04 0.03 0.04 0.05 0.05 0.05 0.04 0.04 0.04 0.05 0.05 0.05 0.04 0.03 0.03 0.02 0.03 0.03 0.02 0.02 0.02 0.02
0.02 0.02 0.02 0.02 0.01 0.00 0.00 0.00 0.00 0.02 0.01 0.01 0.01 0.01 0.01 0.01 0.01 0.01 0.01 0.01 0.02 0.04 0.05 0.05 0.06 0.06 0.06 0.06 0.06 0.06 0.05 0.05 0.05 0.03 0.02 0.03 0.03 0.03 0.02 0.01 0.01 0.01 0.00
0.02 0.02 0.02 0.02 0.02 0.00 0.00 0.00 0.00 0.01 0.01 0.01 0.01 0.02 0.01 0.01 0.01 0.01 0.01 0.01 0.01 0.02 0.03 0.04 0.06 0.08 0.08 0.08 0.08 0.07 0.06 0.05 0.05 0.04 0.03 0.04 0.03 0.02 0.01 0.01 0.00 0.00 0.00
0.02 0.02 0.02 0.02 0.02 0.01 0.01 0.01 0.01 0.02 0.02 0.02 0.01 0.01 0.01 0.01 0.01 0.01 0.02 0.02 0.02 0.03 0.04 0.06 0.07 0.08 0.09 0.08 0.07 0.07 0.07 0.06 0.07 0.06 0.04 0.03 0.02 0.01 0.01 0.00 0.00 0.00 0.00
0.03 0.02 0.02 0.01 0.01 0.01 0.01 0.01 0.02 0.02 0.02 0.02 0.02 0.01 0.01 0.02 0.02 0.02 0.03 0.03 0.03 0.03 0.03 0.04 0.06 0.07 0.06 0.07 0.06 0.06 0.06 0.06 0.06 0.05 0.03 0.02 0.01 0.01 0.01 0.01 0.00 0.00 0.00
MSLP
1018.54 1018.67 1018.78 1018.87 1018.94 1019.01 1019.07 1019.12 1019.15 1019.16 1019.14 1019.08 1019.01 1018.95 1018.90 1018.91 1018.98 1019.11 1019.29 1019.49 1019.69 1019.87 1020.01 1020.11 1020.19 1020.26 1020.37 1020.52 1020.73 1020.99 1021.29 1021.61 1021.92 1022.20 1022.43 1022.62 1022.78 1022.91 1023.04 1023.16 1023.28 1023.39 1023.49
1018.58 1018.69 1018.78 1018.84 1018.89 1018.94 1018.97 1019.01 1019.04 1019.05 1019.05 1019.02 1018.98 1018.93 1018.89 1018.88 1018.90 1018.96 1019.06 1019.17 1019.28 1019.39 1019.47 1019.55 1019.63 1019.73 1019.87 1020.06 1020.31 1020.61 1020.95 1021.30 1021.63 1021.94 1022.22 1022.45 1022.66 1022.84 1023.02 1023.20 1023.37 1023.53 1023.68
1018.66 1018.77 1018.86 1018.92 1018.97 1019.01 1019.04 1019.08 1019.10 1019.12 1019.12 1019.09 1019.04 1018.97 1018.89 1018.81 1018.75 1018.71 1018.69 1018.70 1018.73 1018.78 1018.85 1018.93 1019.04 1019.18 1019.38 1019.62 1019.91 1020.25 1020.61 1020.99 1021.35 1021.70 1022.02 1022.31 1022.58 1022.82 1023.06 1023.30 1023.52 1023.74 1023.94
1018.76 1018.89 1019.00 1019.09 1019.16 1019.21 1019.25 1019.28 1019.31 1019.32 1019.30 1019.25 1019.16 1019.03 1018.87 1018.69 1018.51 1018.36 1018.23 1018.15 1018.12 1018.13 1018.20 1018.31 1018.46 1018.66 1018.90 1019.19 1019.51 1019.87 1020.25 1020.65 1021.05 1021.44 1021.81 1022.17 1022.51 1022.83 1023.14 1023.44 1023.73 1024.00 1024.25
1018.87 1019.04 1019.19 1019.32 1019.42 1019.49 1019.54 1019.58 1019.60 1019.59 1019.54 1019.45 1019.29 1019.08 1018.82 1018.54 1018.25 1017.98 1017.76 1017.61 1017.53 1017.54 1017.62 1017.76 1017.95 1018.19 1018.47 1018.77 1019.10 1019.46 1019.84 1020.25 1020.67 1021.11 1021.55 1021.98 1022.41 1022.83 1023.22 1023.60 1023.94 1024.26 1024.56
1018.99 1019.21 1019.41 1019.57 1019.70 1019.80 1019.86 1019.90 1019.91 1019.88 1019.80 1019.65 1019.42 1019.13 1018.78 1018.40 1018.02 1017.67 1017.38 1017.19 1017.10 1017.10 1017.20 1017.37 1017.59 1017.84 1018.11 1018.39 1018.68 1019.00 1019.35 1019.75 1020.19 1020.68 1021.19 1021.73 1022.27 1022.79 1023.28 1023.74 1024.15 1024.52 1024.85
1019.14 1019.40 1019.63 1019.82 1019.98 1020.09 1020.16 1020.20 1020.19 1020.14 1020.02 1019.83 1019.56 1019.21 1018.80 1018.36 1017.91 1017.52 1017.21 1017.00 1016.91 1016.93 1017.04 1017.21 1017.42 1017.63 1017.84 1018.05 1018.26 1018.50 1018.79 1019.16 1019.61 1020.14 1020.75 1021.39 1022.05 1022.70 1023.30 1023.85 1024.32 1024.74 1025.10
1019.35 1019.62 1019.86 1020.06 1020.21 1020.32 1020.39 1020.42 1020.41 1020.35 1020.22 1020.02 1019.72 1019.35 1018.92 1018.45 1018.00 1017.60 1017.29 1017.10 1017.02 1017.06 1017.16 1017.31 1017.47 1017.60 1017.70 1017.78 1017.87 1017.99 1018.20 1018.51 1018.97 1019.55 1020.24 1021.00 1021.80 1022.57 1023.29 1023.92 1024.47 1024.93 1025.31
1019.63 1019.88 1020.10 1020.27 1020.40 1020.49 1020.55 1020.58 1020.57 1020.51 1020.39 1020.20 1019.92 1019.57 1019.16 1018.71 1018.29 1017.92 1017.65 1017.49 1017.43 1017.47 1017.56 1017.66 1017.73 1017.75 1017.71 1017.64 1017.57 1017.56 1017.65 1017.91 1018.36 1018.98 1019.75 1020.63 1021.55 1022.44 1023.27 1024.00 1024.60 1025.09 1025.50
1019.95 1020.16 1020.32 1020.44 1020.53 1020.59 1020.63 1020.66 1020.66 1020.63 1020.54 1020.39 1020.16 1019.85 1019.49 1019.11 1018.74 1018.43 1018.20 1018.08 1018.05 1018.09 1018.15 1018.19 1018.17 1018.07 1017.88 1017.65 1017.43 1017.28 1017.27 1017.47 1017.90 1018.55 1019.39 1020.36 1021.38 1022.39 1023.31 1024.10 1024.75 1025.26 1025.67
1020.30 1020.43 1020.51 1020.57 1020.61 1020.63 1020.66 1020.69 1020.71 1020.72 1020.68 1020.58 1020.41 1020.17 1019.87 1019.55 1019.25 1019.00 1018.82 1018.74 1018.74 1018.78 1018.82 1018.82 1018.72 1018.52 1018.22 1017.86 1017.51 1017.25 1017.16 1017.30 1017.71 1018.38 1019.27 1020.30 1021.40 1022.47 1023.45 1024.28 1024.95 1025.47 1025.88
1020.63 1020.66 1020.66 1020.65 1020.63 1020.62 1020.64 1020.68 1020.73 1020.77 1020.79 1020.75 1020.64 1020.46 1020.22 1019.96 1019.71 1019.51 1019.38 1019.34 1019.37 1019.43 1019.48 1019.46 1019.33 1019.08 1018.72 1018.29 1017.87 1017.55 1017.41 1017.51 1017.91 1018.57 1019.47 1020.53 1021.65 1022.75 1023.75 1024.59 1025.25 1025.75 1026.13
1020.88 1020.82 1020.75 1020.67 1020.61 1020.58 1020.59 1020.65 1020.73 1020.81 1020.86 1020.87 1020.80 1020.66 1020.46 1020.23 1020.02 1019.86 1019.77 1019.77 1019.84 1019.94 1020.03 1020.04 1019.95 1019.72 1019.37 1018.96 1018.54 1018.21 1018.06 1018.14 1018.51 1019.16 1020.03 1021.07 1022.17 1023.24 1024.21 1025.02 1025.65 1026.11 1026.44
1021.05 1020.92 1020.78 1020.65 1020.56 1020.52 1020.54 1020.61 1020.72 1020.83 1020.90 1020.93 1020.87 1020.74 1020.55 1020.34 1020.14 1020.00 1019.95 1019.99 1020.11 1020.28 1020.45 1020.56 1020.56 1020.42 1020.17 1019.84 1019.49 1019.21 1019.08 1019.16 1019.51 1020.12 1020.94 1021.90 1022.93 1023.94 1024.83 1025.58 1026.14 1026.54 1026.82
1021.14 1020.95 1020.77 1020.62 1020.52 1020.48 1020.51 1020.60 1020.72 1020.84 1020.92 1020.93 1020.87 1020.72 1020.52 1020.29 1020.09 1019.96 1019.93 1020.02 1020.22 1020.48 1020.76 1021.00 1021.15 1021.18 1021.08 1020.89 1020.66 1020.46 1020.39 1020.48 1020.80 1021.34 1022.08 1022.94 1023.86 1024.75 1025.55 1026.20 1026.68 1027.01 1027.22
1021.19 1020.96 1020.76 1020.60 1020.51 1020.49 1020.54 1020.64 1020.76 1020.87 1020.93 1020.92 1020.82 1020.64 1020.40 1020.15 1019.94 1019.82 1019.82 1019.96 1020.23 1020.60 1021.02 1021.42 1021.74 1021.96 1022.04 1022.02 1021.94 1021.85 1021.83 1021.94 1022.23 1022.69 1023.31 1024.04 1024.82 1025.57 1026.25 1026.80 1027.20 1027.46 1027.62
1021.24 1021.00 1020.80 1020.65 1020.58 1020.58 1020.64 1020.74 1020.85 1020.94 1020.97 1020.92 1020.77 1020.55 1020.29 1020.01 1019.80 1019.69 1019.72 1019.92 1020.27 1020.74 1021.29 1021.84 1022.34 1022.73 1022.99 1023.14 1023.19 1023.21 1023.24 1023.35 1023.58 1023.95 1024.44 1025.03 1025.66 1026.28 1026.83 1027.28 1027.61 1027.82 1027.93
1021.33 1021.10 1020.91 1020.79 1020.73 1020.75 1020.82 1020.91 1021.01 1021.07 1021.06 1020.96 1020.78 1020.53 1020.25 1019.97 1019.76 1019.67 1019.74 1019.99 1020.41 1020.96 1021.61 1022.28 1022.91 1023.44 1023.85 1024.12 1024.28 1024.37 1024.44 1024.53 1024.70 1024.97 1025.33 1025.78 1026.26 1026.75 1027.19 1027.56 1027.83 1028.01 1028.10
1021.50 1021.28 1021.11 1021.01 1020.98 1021.00 1021.07 1021.15 1021.22 1021.25 1021.20 1021.08 1020.87 1020.61 1020.33 1020.07 1019.88 1019.82 1019.93 1020.22 1020.68 1021.28 1021.98 1022.72 1023.42 1024.03 1024.52 1024.87 1025.09 1025.21 1025.29 1025.35 1025.45 1025.62 1025.86 1026.18 1026.54 1026.91 1027.27 1027.57 1027.81 1027.97 1028.06
1021.72 1021.53 1021.39 1021.31 1021.30 1021.32 1021.38 1021.44 1021.48 1021.47 1021.40 1021.25 1021.05 1020.79 1020.53 1020.31 1020.16 1020.14 1020.28 1020.59 1021.07 1021.68 1022.38 1023.11 1023.82 1024.44 1024.94 1025.31 1025.55 1025.68 1025.73 1025.75 1025.79 1025.87 1026.01 1026.21 1026.47 1026.75 1027.04 1027.31 1027.53 1027.70 1027.81
1022.00 1021.84 1021.73 1021.67 1021.66 1021.69 1021.73 1021.76 1021.76 1021.72 1021.63 1021.48 1021.28 1021.06 1020.84 1020.66 1020.56 1020.58 1020.74 1021.05 1021.51 1022.08 1022.73 1023.40 1024.06 1024.63 1025.10 1025.44 1025.66 1025.76 1025.79 1025.77 1025.75 1025.76 1025.82 1025.94 1026.11 1026.33 1026.57 1026.80 1027.02 1027.20 1027.34
1022.30 1022.18 1022.10 1022.07 1022.06 1022.08 1022.09 1022.09 1022.06 1021.99 1021.88 1021.73 1021.55 1021.37 1021.20 1021.07 1021.02 1021.07 1021.24 1021.52 1021.93 1022.43 1022.98 1023.56 1024.12 1024.61 1025.01 1025.30 1025.48 1025.55 1025.55 1025.50 1025.45 1025.41 1025.41 1025.47 1025.58 1025.74 1025.93 1026.14 1026.35 1026.54 1026.69
1022.62 1022.54 1022.50 1022.49 1022.49 1022.49 1022.47 1022.44 1022.37 1022.28 1022.16 1022.01 1021.85 1021.70 1021.58 1021.49 1021.48 1021.54 1021.69 1021.94 1022.27 1022.68 1023.12 1023.59 1024.03 1024.43 1024.75 1024.98 1025.11 1025.17 1025.15 1025.10 1025.02 1024.96 1024.92 1024.94 1025.00 1025.11 1025.26 1025.43 1025.61 1025.79 1025.95
1022.96 1022.94 1022.94 1022.95 1022.95 1022.93 1022.89 1022.82 1022.72 1022.60 1022.47 1022.32 1022.18 1022.05 1021.96 1021.90 1021.90 1021.96 1022.08 1022.27 1022.52 1022.82 1023.16 1023.51 1023.84 1024.15 1024.40 1024.59 1024.70 1024.75 1024.75 1024.70 1024.63 1024.56 1024.50 1024.48 1024.50 1024.55 1024.65 1024.77 1024.91 1025.05 1025.18
1023.35 1023.39 1023.43 1023.45 1023.45 1023.42 1023.36 1023.26 1023.13 1022.99 1022.83 1022.68 1022.54 1022.43 1022.35 1022.30 1022.29 1022.33 1022.41 1022.54 1022.71 1022.91 1023.14 1023.39 1023.64 1023.88 1024.08 1024.25 1024.36 1024.43 1024.45 1024.42 1024.37 1024.30 1024.24 1024.19 1024.16 1024.16 1024.19 1024.25 1024.32 1024.40 1024.48
1023.81 1023.89 1023.97 1024.01 1024.01 1023.97 1023.89 1023.77 1023.62 1023.45 1023.28 1023.12 1022.97 1022.85 1022.77 1022.71 1022.68 1022.69 1022.72 1022.78 1022.88 1023.00 1023.15 1023.32 1023.50 1023.69 1023.87 1024.04 1024.17 1024.26 1024.31 1024.32 1024.29 1024.23 1024.15 1024.07 1024.00 1023.94 1023.90 1023.89 1023.89 1023.90 1023.91
Thickness
5721 5721 5721 5720 5721 5722 5722 5722 5723 5722 5722 5722 5723 5723 5723 5724 5723 5723 5722 5718 5716 5714 5713 5712 5710 5709 5707 5706 5705 5703 5702 5702 5701 5700 5699 5698 5697 5697 5696 5695 5694 5693 5693
5716 5717 5716 5716 5717 5717 5719 5719 5719 5718 5718 5719 5719 5719 5719 5720 5719 5718 5719 5717 5714 5713 5711 5710 5709 5708 5706 5704 5703 5701 5700 5699 5698 5698 5697 5696 5695 5694 5693 5693 5692 5691 5689
5712 5712 5713 5713 5713 5713 5713 5714 5715 5715 5715 5715 5715 5715 5714 5714 5715 5714 5714 5715 5714 5712 5710 5709 5708 5706 5704 5703 5701 5700 5698 5697 5696 5695 5694 5693 5692 5691 5691 5689 5688 5687 5686
5706 5707 5709 5709 5709 5710 5710 5711 5712 5712 5712 5712 5711 5711 5712 5711 5710 5710 5710 5710 5710 5711 5709 5707 5706 5704 5703 5701 5700 5698 5696 5695 5693 5692 5691 5690 5689 5688 5687 5686 5684 5683 5682
5701 5702 5703 5703 5704 5706 5707 5707 5709 5708 5707 5707 5707 5706 5707 5707 5707 5707 5707 5706 5706 5706 5706 5704 5703 5702 5700 5699 5697 5695 5694 5692 5691 5689 5687 5686 5685 5684 5682 5681 5680 5678 5677
5696 5697 5697 5697 5699 5701 5701 5701 5701 5701 5701 5701 5702 5703 5703 5703 5703 5702 5702 5702 5701 5701 5701 5700 5699 5698 5697 5695 5694 5692 5691 5689 5688 5686 5684 5682 5681 5679 5678 5676 5674 5673 5671
5690 5691 5693 5692 5693 5695 5694 5695 5696 5696 5696 5696 5695 5695 5698 5699 5698 5697 5697 5697 5697 5696 5696 5695 5694 5694 5693 5692 5690 5689 5688 5686 5684 5682 5680 5678 5676 5675 5673 5671 5669 5666 5664
5683 5685 5685 5687 5687 5688 5688 5688 5689 5690 5692 5692 5690 5689 5689 5691 5692 5694 5693 5691 5691 5691 5691 5690 5689 5688 5688 5688 5687 5685 5684 5682 5680 5678 5675 5673 5671 5670 5667 5665 5663 5660 5658
5675 5676 5678 5679 5680 5682 5683 5682 5682 5683 5684 5685 5685 5683 5682 5684 5687 5688 5686 5686 5685 5685 5684 5683 5683 5683 5682 5682 5681 5680 5678 5677 5676 5674 5671 5668 5666 5665 5662 5659 5657 5654 5651
5668 5669 5670 5671 5673 5676 5676 5677 5677 5677 5677 5679 5680 5681 5680 5681 5677 5677 5679 5679 5678 5677 5676 5676 5677 5677 5677 5677 5676 5675 5673 5672 5670 5668 5666 5663 5661 5659 5656 5653 5651 5647 5644
5660 5661 5663 5664 5666 5667 5668 5668 5669 5670 5673 5674 5674 5674 5674 5675 5675 5671 5670 5671 5670 5669 5669 5669 5669 5669 5669 5670 5670 5669 5668 5666 5664 5662 5660 5657 5655 5653 5649 5646 5643 5640 5637
5654 5653 5654 5656 5657 5658 5659 5661 5662 5664 5665 5667 5667 5668 5668 5668 5669 5668 5665 5663 5662 5661 5661 5661 5660 5660 5660 5662 5662 5662 5661 5659 5657 5655 5653 5650 5648 5645 5641 5637 5634 5631 5627
5646 5645 5646 5647 5649 5650 5651 5653 5655 5657 5658 5659 5660 5662 5663 5664 5664 5663 5660 5658 5655 5653 5652 5651 5652 5652 5652 5653 5653 5653 5652 5650 5648 5646 5644 5641 5638 5635 5631 5628 5625 5621 5618
5637 5637 5637 5638 5640 5642 5644 5645 5649 5650 5651 5652 5653 5654 5655 5657 5658 5657 5655 5651 5648 5646 5644 5643 5642 5643 5643 5643 5643 5642 5641 5640 5639 5636 5633 5631 5627 5624 5621 5617 5614 5611 5607
5629 5629 5630 5631 5632 5633 5635 5638 5640 5641 5642 5644 5646 5648 5649 5650 5651 5650 5650 5648 5644 5642 5639 5636 5634 5634 5634 5633 5632 5631 5630 5629 5628 5625 5622 5619 5617 5614 5610 5607 5604 5601 5597
5619 5620 5622 5623 5624 5625 5627 5629 5632 5632 5634 5636 5638 5639 5640 5642 5643 5643 5643 5643 5642 5640 5635 5631 5627 5625 5624 5622 5621 5621 5620 5618 5617 5615 5612 5609 5606 5603 5600 5597 5594 5590 5586
5609 5611 5612 5614 5615 5616 5618 5619 5622 5624 5626 5628 5630 5632 5633 5633 5635 5636 5636 5636 5634 5632 5626 5621 5618 5615 5614 5613 5611 5611 5610 5609 5606 5605 5602 5599 5595 5591 5589 5586 5583 5580 5577
5600 5601 5602 5604 5606 5607 5608 5610 5612 5614 5616 5619 5621 5623 5625 5627 5628 5628 5628 5628 5626 5625 5621 5614 5609 5606 5604 5603 5602 5602 5601 5599 5596 5593 5591 5588 5585 5581 5579 5577 5574 5571 5568
5590 5591 5592 5594 5595 5596 5598 5600 5602 5605 5607 5608 5610 5613 5615 5617 5619 5620 5620 5620 5619 5617 5613 5608 5602 5598 5596 5595 5594 5593 5591 5588 5587 5584 5582 5579 5577 5574 5571 5569 5566 5564 5561
5580 5581 5582 5583 5585 5586 5588 5590 5593 5595 5596 5598 5600 5602 5605 5607 5609 5610 5611 5610 5609 5607 5604 5600 5596 5592 5589 5587 5587 5586 5583 5581 5580 5578 5575 5572 5570 5567 5565 5562 5560 5558 5556
5571 5571 5572 5573 5575 5576 5576 5578 5582 5585 5586 5588 5589 5591 5593 5594 5597 5600 5602 5601 5601 5599 5597 5594 5590 5587 5584 5582 5582 5581 5578 5576 5573 5572 5570 5568 5565 5563 5561 5558 5556 5555 5552
5561 5561 5562 5563 5563 5563 5561 5564 5569 5574 5576 5578 5579 5581 5583 5586 5587 5588 5590 5591 5592 5592 5591 5590 5587 5583 5580 5579 5577 5576 5575 5574 5570 5567 5567 5565 5563 5562 5560 5558 5556 5553 5550
5551 5552 5552 5552 5552 5550 5550 5553 5557 5563 5566 5567 5569 5573 5576 5576 5579 5581 5581 5581 5581 5581 5582 5584 5582 5579 5577 5575 5574 5572 5571 5570 5567 5564 5562 5562 5561 5560 5559 5558 5554 5551 5549
5542 5542 5542 5543 5543 5541 5541 5544 5548 5554 5556 5558 5560 5563 5565 5568 5570 5572 5575 5575 5575 5573 5574 5575 5574 5573 5571 5569 5568 5567 5565 5562 5560 5559 5559 5559 5560 5560 5559 5557 5553 5551 5548
5533 5534 5534 5534 5534 5533 5532 5535 5539 5546 5548 5550 5552 5553 5557 5559 5558 5562 5567 5568 5567 5565 5564 5565 5565 5564 5562 5561 5561 5562 5561 5561 5559 5558 5558 5559 5559 5559 5559 5558 5554 5551 5550
5526 5527 5526 5526 5526 5525 5524 5528 5532 5540 5541 5543 5544 5545 5544 5548 5550 5554 5559 5560 5560 5559 5559 5558 5556 5556 5555 5555 5555 5556 5559 5560 5559 5558 5556 5556 5558 5559 5558 5559 5557 5555 5553